Location: Hollin Hills
(38.7573°N, 77.0661°W)
Time: 11:48:28
(UTC+00:00)

ISS - Pass Details

Date: 21 April 2026
Orbit: 414 x 424 km, 51.6° (Epoch: 11 May)

Event Time Altitude Azimuth Distance (km) Brightness Sun altitude
Exits shadow 08:54:05 41° 274° (W) 620 -3.3 -16.8°
Maximum altitude 08:54:54 54° 324° (NW) 513 -3.4 -16.7°
Drops below altitude 10° 08:58:13 10° 44° (NE) 1,503 0.3 -16.1°
Sets 09:00:22 0° 49° (NE) 2,372 1.7 -15.7°
